[[{"header":{"parameterUnit":"m.s-1","parameterCategory":1,"la1":30.2991,"la2":30.254,"lo1":-89.0895,"lo2":-89.0444,"dy":0.0017,"dx":0.0017,"nx":28,"ny":28,"refTime":"2025-11-21T09:00:00:Z","depth":0,"parameterNumber":2,"parameterNumberName":"U-component_of_WINDS"},"data":[0,0,0,0,0,0,0,0,0,0,0,0,0,0,0,0,0,0,0,0,0,0,0,0,0,0,0,0,0,0,0,0,0,0,0,0,0,0,0,0,0,0,0,0,0,0,0,0,0,0,0,0,0,0,0,0,0,0,-2.2649,-2.265,0,-2.2766,-2.2767,-2.2768,-2.283,-2.283,-2.2831,-2.2831,-2.2947,-2.295,-2.2952,0,0,0,0,0,0,0,0,0,0,0,0,0,-2.2477,-2.248,-2.2649,-2.2651,-2.2652,-2.2765,-2.2767,-2.2769,-2.283,-2.283,-2.2831,-2.2831,-2.2946,-2.2949,-2.2953,0,0,0,0,0,0,0,0,0,0,0,0,0,-2.2568,-2.248,-2.2649,-2.2697,-2.2702,-2.2765,-2.2767,-2.2769,-2.283,-2.283,-2.2831,-2.2831,-2.2944,-2.2949,-2.2953,-2.2977,0,0,-2.2967,-2.2969,0,0,0,0,0,0,0,0,-2.2563,-2.2574,-2.2688,-2.2693,-2.27,-2.2784,-2.2749,-2.2839,-2.283,-2.2781,-2.2831,-2.2831,-2.2892,-2.2901,-2.2922,-2.2982,-2.2987,-2.2967,-2.297,-2.2972,-2.2973,0,0,0,0,0,0,0,-2.2556,-2.257,-2.2695,-2.269,-2.2697,-2.2711,-2.2724,-2.2766,-2.2834,-2.2786,-2.279,-2.2804,-2.2895,-2.2918,-2.2925,-2.2989,-2.2967,-2.2971,-2.2974,-2.2976,-2.3073,-2.3073,0,0,0,0,0,0,-2.2543,-2.2564,-2.2691,-2.2699,-2.263,-2.2714,-2.2729,-2.2756,-2.2834,-2.2846,-2.2803,-2.2806,-2.291,-2.292,-2.293,-2.2962,-2.2972,-2.2976,-2.2979,-2.3073,-2.3073,-2.3073,0,0,0,0,0,0,-2.2539,-2.2554,-2.2687,-2.2633,-2.2651,-2.2717,-2.2747,-2.2759,-2.2781,-2.2847,-2.2859,-2.2814,-2.2911,-2.2923,-2.2965,-2.2967,-2.2978,-2.2982,-2.3073,-2.3073,-2.3073,-2.3027,0,0,0,0,0,0,-2.2534,-2.2552,-2.2562,-2.2633,-2.2653,-2.2721,-2.2748,-2.2761,-2.2789,-2.2794,-2.286,-2.2872,-2.2912,-2.2958,-2.2969,-2.2973,-2.2985,-2.3073,-2.3073,-2.3073,-2.3028,-2.3025,-2.3022,0,0,0,0,0,-2.2527,-2.2544,-2.2563,-2.2578,-2.2668,-2.2721,-2.2733,-2.2779,-2.2789,-2.28,-2.2842,-2.287,-2.2965,-2.2961,-2.2975,-2.298,-2.3073,-2.3073,-2.3073,-2.303,-2.3026,-2.3022,0,0,0,0,0,0,-2.2472,-2.2554,-2.2576,-2.2616,-2.2661,-2.2731,-2.2746,-2.2774,-2.2816,-2.2819,-2.2874,-2.2888,-2.2924,-2.2956,-2.2951,-2.3007,-2.3022,-2.3024,-2.2984,-2.2981,-2.2978,-2.2969,-2.2989,0,0,0,0,0,-2.2465,-2.2502,-2.2571,-2.26,-2.2622,-2.268,-2.2704,-2.2736,-2.2785,-2.2804,-2.2849,-2.2894,-2.2934,-2.2959,-2.3,-2.3033,-2.3048,-2.3043,-2.304,-2.3037,-2.3039,-2.3058,-2.3057,-2.3072,-2.3072,-2.3072,0,0,-2.245,-2.2499,-2.2519,-2.259,-2.2629,-2.2665,-2.2695,-2.2732,-2.2759,-2.2809,-2.2851,-2.2886,-2.2939,-2.2977,-2.2995,-2.3005,-2.3038,-2.3037,-2.3034,-2.3038,-2.3058,-2.3056,-2.3055,-2.3072,-2.3072,-2.3072,0,0,-2.2441,-2.2482,-2.251,-2.2548,-2.2607,-2.2645,-2.2652,-2.2718,-2.2743,-2.2786,-2.2824,-2.2856,-2.2924,-2.2961,-2.2988,-2.2992,-2.3018,-2.3003,-2.2987,-2.3005,-2.3004,-2.3003,-2.3004,-2.3003,-2.3004,-2.3004,-2.3004,0,-2.2414,-2.2471,-2.2521,-2.2556,-2.2585,-2.2633,-2.2661,-2.2696,-2.2763,-2.2782,-2.2792,-2.2878,-2.2918,-2.2964,-2.2964,-2.2985,-2.2994,-2.2996,-2.3,-2.3,-2.3,-2.3001,-2.3001,-2.3002,-2.3002,-2.3002,-2.3003,0,-2.2435,-2.2474,-2.2489,-2.2555,-2.2586,-2.2617,-2.2671,-2.2696,-2.2725,-2.2762,-2.2804,-2.2854,-2.2904,-2.2918,-2.2946,-2.2968,-2.2971,-2.299,-2.3006,-2.2995,-2.2997,-2.2998,-2.2999,-2.3,-2.3,-2.3001,0,0,-2.2396,-2.2488,-2.2492,-2.2522,-2.2589,-2.262,-2.2652,-2.2703,-2.2723,-2.2768,-2.2796,-2.2852,-2.287,-2.2901,-2.2933,-2.2949,-2.2948,-2.2966,-2.2968,-2.296,-2.2974,-2.2959,-2.2959,-2.2966,-2.2966,-2.2967,-2.2969,0,-2.2396,-2.2458,-2.2503,-2.2547,-2.2583,-2.2628,-2.2656,-2.27,-2.2735,-2.2769,-2.2808,-2.2846,-2.2867,-2.2886,-2.2903,-2.2944,-2.2951,-2.2945,-2.2992,-2.2993,-2.2977,-2.296,-2.2945,-2.2945,-2.297,-2.297,-2.297,0,-2.2405,-2.2449,-2.2496,-2.2559,-2.2576,-2.26,-2.265,-2.2683,-2.2732,-2.2756,-2.2791,-2.2824,-2.286,-2.2872,-2.2921,-2.2916,-2.2937,-2.296,-2.2961,-2.2967,-2.2981,-2.2965,-2.2946,-2.2946,-2.2972,-2.2972,-2.2972,0,-2.237,-2.2441,-2.2479,-2.2503,-2.2577,-2.2593,-2.2625,-2.2675,-2.2702,-2.2745,-2.2763,-2.2809,-2.2834,-2.2868,-2.2913,-2.2918,-2.2956,-2.2973,-2.2977,-2.2975,-2.2983,-2.2981,-2.2966,-2.2997,-2.2997,-2.2997,-2.2997,0,-2.2366,-2.2393,-2.2464,-2.2487,-2.2519,-2.257,-2.2599,-2.2634,-2.2678,-2.2708,-2.2749,-2.2776,-2.2834,-2.2867,-2.2902,-2.2937,-2.2948,-2.2968,-2.2977,-2.2964,-2.2961,-2.2979,-2.298,-2.2997,-2.2997,-2.2997,-2.2997,0,-2.2333,-2.2382,-2.2425,-2.2492,-2.2509,-2.2529,-2.2586,-2.2609,-2.2646,-2.2683,-2.2695,-2.2752,-2.2794,-2.2842,-2.2899,-2.2922,-2.2954,-2.2967,-2.2937,-2.2942,-2.2943,-2.2942,-2.2938,-2.294,-2.2969,-2.2969,-2.2968,0,-2.2327,-2.2349,-2.2417,-2.2441,-2.2471,-2.2508,-2.2536,-2.2586,-2.2614,-2.2671,-2.2687,-2.2732,-2.2771,-2.2835,-2.2881,-2.2925,-2.2939,-2.2935,-2.2946,-2.2932,-2.2938,-2.2936,-2.2939,-2.2932,-2.2931,-2.2931,-2.293,0,-2.231,-2.2333,-2.2372,-2.2419,-2.2452,-2.2491,-2.2532,-2.2549,-2.2607,-2.2636,-2.2679,-2.2709,-2.2767,-2.281,-2.286,-2.2891,-2.292,-2.2926,-2.2929,-2.2916,-2.2898,-2.2907,-2.2928,-2.2926,-2.2927,-2.2927,-2.2927,-2.2927,-2.2291,-2.2312,-2.2363,-2.2405,-2.2441,-2.2478,-2.2503,-2.2543,-2.2581,-2.2632,-2.266,-2.2702,-2.275,-2.282,-2.285,-2.2883,-2.2893,-2.2897,-2.2899,-2.2899,-2.2895,-2.2893,-2.2892,-2.2892,-2.2893,-2.2893,-2.2893,0,-2.2276,-2.2311,-2.2349,-2.2405,-2.2437,-2.2463,-2.2509,-2.2534,-2.2571,-2.2614,-2.2651,-2.27,-2.2742,-2.2792,-2.2837,-2.2854,-2.2868,-2.2864,-2.2863,-2.2869,-2.2884,-2.2876,-2.2851,-2.2851,-2.2851,-2.2851,-2.2851,-2.2851,-2.2272,-2.2309,-2.2338,-2.2392,-2.2427,-2.247,-2.2494,-2.2528,-2.2562,-2.2615,-2.2651,-2.2683,-2.2728,-2.2777,-2.2816,-2.283,-2.2844,-2.2836,-2.2853,-2.2865,-2.2869,-2.2872,-2.2865,-2.2839,-2.2839,-2.2836,-2.2836,-2.2836]},{"header":{"parameterUnit":"m.s-1","parameterCategory":1,"la1":30.2991,"la2":30.254,"lo1":-89.0895,"lo2":-89.0444,"dy":0.0017,"dx":0.0017,"nx":28,"ny":28,"refTime":"2025-11-21T09:00:00:Z","depth":0,"parameterNumber":3,"parameterNumberName":"V-component_of_WINDS"},"data":[0,0,0,0,0,0,0,0,0,0,0,0,0,0,0,0,0,0,0,0,0,0,0,0,0,0,0,0,0,0,0,0,0,0,0,0,0,0,0,0,0,0,0,0,0,0,0,0,0,0,0,0,0,0,0,0,0,0,4.2989,4.2989,0,4.2994,4.2994,4.2994,4.3009,4.301,4.301,4.3011,4.3008,4.3008,4.3007,0,0,0,0,0,0,0,0,0,0,0,0,0,4.2994,4.2993,4.2989,4.2989,4.299,4.2993,4.2994,4.2994,4.3009,4.301,4.301,4.3011,4.3008,4.3008,4.3007,0,0,0,0,0,0,0,0,0,0,0,0,0,4.2994,4.2993,4.2989,4.2998,4.2999,4.2993,4.2994,4.2994,4.3009,4.301,4.301,4.3011,4.3008,4.3008,4.3007,4.2991,0,0,4.3005,4.3005,0,0,0,0,0,0,0,0,4.2994,4.2994,4.2997,4.2997,4.2998,4.3002,4.2994,4.2993,4.3009,4.3005,4.3011,4.3011,4.3005,4.3005,4.3004,4.2991,4.2991,4.3005,4.3005,4.3004,4.3004,0,0,0,0,0,0,0,4.2994,4.2994,4.2991,4.2997,4.2998,4.3001,4.3002,4.2994,4.3001,4.3005,4.3007,4.3007,4.3005,4.3004,4.3004,4.2991,4.3005,4.3004,4.3004,4.3004,4.2973,4.2973,0,0,0,0,0,0,4.2993,4.2993,4.2991,4.2991,4.2998,4.3001,4.3001,4.3,4.3002,4.3003,4.3007,4.3008,4.3005,4.3005,4.3004,4.299,4.3004,4.3004,4.3003,4.2974,4.2973,4.2973,0,0,0,0,0,0,4.2993,4.2993,4.299,4.2993,4.2993,4.3,4.2998,4.3,4.2999,4.3003,4.3004,4.3005,4.3006,4.3005,4.2997,4.299,4.3003,4.3003,4.2974,4.2974,4.2973,4.296,0,0,0,0,0,0,4.2993,4.2993,4.2987,4.2993,4.2993,4.2983,4.2998,4.2999,4.2998,4.3,4.3001,4.3002,4.3006,4.2998,4.2996,4.299,4.3002,4.2975,4.2974,4.2973,4.2961,4.2959,4.2958,0,0,0,0,0,4.2993,4.298,4.2986,4.2986,4.2985,4.2983,4.2983,4.299,4.2998,4.2992,4.2996,4.3001,4.2992,4.2996,4.2995,4.2988,4.2975,4.2974,4.2973,4.2962,4.296,4.2958,0,0,0,0,0,0,4.2968,4.298,4.2988,4.2976,4.2979,4.2985,4.2978,4.2986,4.2985,4.2986,4.2994,4.2994,4.2986,4.2986,4.2991,4.2977,4.2985,4.2983,4.2977,4.2974,4.2973,4.2973,4.3002,0,0,0,0,0,4.2962,4.2961,4.297,4.2959,4.2961,4.297,4.2968,4.2975,4.2977,4.2977,4.298,4.2981,4.2979,4.2977,4.2974,4.2962,4.2964,4.2957,4.2955,4.2954,4.2953,4.2952,4.295,4.297,4.297,4.297,0,0,4.2948,4.2954,4.2952,4.2955,4.2957,4.2956,4.297,4.2965,4.2965,4.2976,4.297,4.2973,4.2975,4.2966,4.2962,4.2966,4.2948,4.2953,4.2952,4.2951,4.2951,4.2949,4.2947,4.2969,4.2969,4.2969,0,0,4.2922,4.2925,4.2919,4.2924,4.293,4.2938,4.2937,4.2944,4.2947,4.2942,4.2953,4.2952,4.2946,4.2949,4.2949,4.2933,4.2939,4.2932,4.2922,4.2921,4.2919,4.2918,4.2915,4.2914,4.2931,4.293,4.293,0,4.2902,4.2901,4.2914,4.2912,4.2915,4.293,4.2925,4.2928,4.2931,4.2933,4.2938,4.2937,4.2938,4.2933,4.2931,4.2929,4.293,4.2931,4.2919,4.2918,4.2917,4.2914,4.2913,4.293,4.293,4.293,4.293,0,4.288,4.2879,4.2873,4.2883,4.2884,4.288,4.2893,4.2893,4.2902,4.2909,4.2906,4.291,4.2912,4.2911,4.2916,4.2909,4.2912,4.2918,4.2926,4.2914,4.2912,4.2911,4.2929,4.2929,4.2929,4.2929,0,0,4.2833,4.2855,4.2853,4.286,4.2871,4.2871,4.287,4.2875,4.2877,4.288,4.2881,4.288,4.2888,4.2889,4.2896,4.2895,4.2887,4.2902,4.2902,4.2901,4.2884,4.288,4.2879,4.2893,4.2892,4.2892,4.2885,0,4.281,4.2811,4.2826,4.2822,4.2825,4.2843,4.2842,4.2849,4.2858,4.2861,4.2869,4.287,4.2878,4.288,4.288,4.2888,4.2884,4.2889,4.2894,4.2894,4.2894,4.2877,4.2871,4.2864,4.2884,4.2884,4.2883,0,4.2783,4.2792,4.2789,4.2808,4.2809,4.2808,4.2818,4.282,4.2831,4.2837,4.2843,4.2852,4.2854,4.2863,4.2866,4.2869,4.2873,4.2878,4.2878,4.2879,4.2888,4.2879,4.2861,4.2861,4.2882,4.2882,4.2882,0,4.2753,4.2764,4.2766,4.277,4.2791,4.2791,4.2799,4.281,4.2815,4.2823,4.2827,4.2833,4.2837,4.2843,4.2856,4.286,4.2859,4.2868,4.2866,4.2866,4.2863,4.2863,4.2848,4.2864,4.2864,4.2864,4.2864,0,4.2727,4.2726,4.2754,4.2754,4.2755,4.2773,4.2773,4.2783,4.2794,4.2798,4.2813,4.2816,4.2833,4.2838,4.2848,4.2852,4.2853,4.2859,4.2862,4.2858,4.2858,4.286,4.2862,4.2864,4.2864,4.2864,4.2864,0,4.2693,4.2711,4.2715,4.2737,4.2743,4.2742,4.2761,4.2763,4.2775,4.2781,4.2783,4.2801,4.2809,4.2823,4.2833,4.2841,4.2844,4.2847,4.2841,4.2843,4.2841,4.2842,4.2827,4.2827,4.2842,4.2842,4.2841,0,4.2675,4.2676,4.27,4.2706,4.2715,4.2723,4.273,4.2749,4.2755,4.2772,4.2773,4.2783,4.2793,4.2805,4.2819,4.2829,4.2834,4.2829,4.2835,4.2834,4.2837,4.2838,4.2839,4.2826,4.2826,4.2826,4.2826,0,4.2644,4.2655,4.2665,4.268,4.2689,4.2701,4.2713,4.2717,4.2739,4.2746,4.2757,4.2765,4.278,4.2791,4.2804,4.2812,4.2824,4.2824,4.2825,4.2821,4.2819,4.2824,4.2838,4.2824,4.2824,4.2824,4.2824,4.2824,4.2619,4.2623,4.2642,4.2655,4.2668,4.2681,4.2687,4.2702,4.2712,4.2728,4.2739,4.275,4.2767,4.2786,4.2795,4.2805,4.2809,4.2809,4.2809,4.2809,4.281,4.2818,4.2807,4.2807,4.2807,4.2807,4.2807,0,4.259,4.2606,4.2618,4.2638,4.2649,4.2663,4.2679,4.2687,4.2698,4.2713,4.2724,4.274,4.2752,4.277,4.2784,4.2789,4.2795,4.2792,4.2792,4.2795,4.2803,4.2802,4.2788,4.2788,4.2788,4.2788,4.2788,4.2788,4.2577,4.2586,4.26,4.2617,4.2632,4.2646,4.2655,4.2668,4.2681,4.2699,4.2711,4.2724,4.2741,4.2759,4.2772,4.2777,4.2782,4.2779,4.2785,4.2792,4.2794,4.2795,4.2795,4.2779,4.2779,4.2777,4.2777,4.2777]}]]